Flag for Austria Weather past 2 weeks in Kirchdorf an der Krems, Upper Austria, Austria

34 °F

Passing clouds.

Feels Like: 31 °F
Forecast: 23 / 38 °F
Wind: 3 mph from West

Location: Linz / Hoersching-Flughafen

Current Time: Nov 27, 2015 at 8:16:24 AM

Latest Report: Nov 27, 2015 at 7:20 AM

Visibility: 4 mi

Pressure: 30.12 "Hg

Humidity: 100%

Dew point: 34 °F

Location of Kirchdorf an der KremsLocation

Historic Weather in Kirchdorf an der Krems — Graph


Kirchdorf an der Krems temperature yesterday

Maximum temperature yesterday: 37 °F (at 12:50 PM)
Minimum temperature yesterday: 32 °F (at 12:20 AM)
Average temperature yesterday: 35 °F

Past Weeks' High & Low Weather Summary

High63 °F (Nov 18, 9:20 AM)100% (Nov 12, 6:20 AM)30.42 "Hg (Nov 12, 6:20 AM)
Low21 °F (Nov 25, 5:20 AM)45% (Nov 18, 11:50 AM)29.42 "Hg (Nov 21, 1:50 PM)
Average43 °F83%30.01 "Hg
* Reported Nov 12 6:20 AM — Nov 27 6:50 AM, Kirchdorf an der Krems, Weather by CustomWeather, © 2015

Note: Actual official high and low records may vary slightly from our data, if they occured in-between our weather recording intervals... More about our weather records


Kirchdorf an der Krems weather history for previous 24 hours

Time TempWeatherWind HumidityBarometerVisibility
6:50 AM
Fri, Nov 27
34 °FFog.3 mph100%30.12 "Hg3 mi
6:20 AM34 °FFog.3 mph100%30.12 "Hg3 mi
5:50 AM36 °FFog.3 mph93%30.12 "Hg3 mi
4:50 AM36 °FPartly cloudy.2 mph93%30.12 "Hg4 mi
4:20 AM36 °FPassing clouds.3 mph93%30.12 "Hg4 mi
3:50 AM36 °FPassing clouds.2 mph93%30.12 "Hg4 mi
3:20 AM36 °FPassing clouds.3 mph93%30.12 "Hg4 mi
2:50 AM36 °FPassing clouds.3 mph93%30.12 "Hg4 mi
2:20 AM36 °FPassing clouds.3 mph93%30.12 "Hg4 mi
1:50 AM36 °FFog.3 mph93%30.12 "Hg3 mi
1:20 AM36 °FPassing clouds.2 mph93%30.12 "Hg4 mi
12:50 AM36 °FFog.2 mph93%30.12 "Hg3 mi
12:20 AM36 °FFog.6 mph100%30.12 "Hg3 mi
11:50 PM
Thu, Nov 26
36 °FPassing clouds.3 mph93%30.12 "Hg4 mi
10:50 PM36 °FPassing clouds.6 mph100%30.09 "Hg4 mi
10:20 PM36 °FPassing clouds.3 mph100%30.09 "Hg4 mi
9:50 PM36 °FPassing clouds.5 mph100%30.09 "Hg4 mi
9:20 PM36 °FPartly cloudy.5 mph100%30.09 "Hg5 mi
8:50 PM36 °FPartly cloudy.5 mph100%30.09 "Hg6 mi
8:20 PM37 °FPartly cloudy.5 mph93%30.09 "Hg6 mi
7:50 PM36 °FPartly cloudy.5 mph100%30.07 "Hg6 mi
7:20 PM37 °FPartly cloudy.5 mph93%30.07 "HgN/A
6:50 PM36 °FPartly cloudy.3 mph100%30.04 "HgN/A
6:20 PM36 °FPassing clouds.5 mph100%30.04 "HgN/A
5:50 PM37 °FPassing clouds.6 mph87%30.04 "HgN/A
5:20 PM37 °FPassing clouds.7 mph87%30.01 "HgN/A
4:50 PM37 °FLight rain. Passing clouds.6 mph87%30.01 "HgN/A
4:20 PM37 °FLight rain. Partly cloudy.6 mph87%30.01 "HgN/A
3:50 PM37 °FLight rain. Partly sunny.6 mph87%29.98 "HgN/A
3:20 PM37 °FLight rain. Partly sunny.5 mph93%29.98 "HgN/A
2:50 PM37 °FLight rain. Broken clouds.6 mph93%29.95 "HgN/A
2:20 PM37 °FLight rain. Partly sunny.6 mph93%29.95 "Hg5 mi
1:50 PM37 °FLight rain. Partly sunny.8 mph87%29.92 "Hg5 mi
1:20 PM37 °FLight rain. Partly sunny.6 mph87%29.92 "Hg6 mi
12:50 PM37 °FDrizzle. Broken clouds.7 mph87%29.92 "Hg5 mi
12:20 PM36 °FDrizzle. Partly sunny.6 mph93%29.92 "Hg5 mi
11:50 AM36 °FDrizzle. Broken clouds.7 mph93%29.89 "Hg4 mi
11:20 AM36 °FDrizzle. Broken clouds.8 mph93%29.89 "Hg4 mi
10:50 AM36 °FDrizzle. Fog.6 mph93%29.89 "Hg3 mi
10:20 AM34 °FDrizzle. Fog.5 mph100%29.86 "Hg3 mi
9:50 AM34 °FFog.5 mph93%29.86 "Hg3 mi
9:20 AM34 °FLight snow. Broken clouds.5 mph93%29.86 "Hg3 mi
8:50 AM34 °FLight snow. Broken clouds.5 mph93%29.86 "Hg2 mi
8:20 AM32 °FLight snow. Broken clouds.5 mph100%29.83 "Hg1 mi
Weather by CustomWeather, © 2015

See weather overviewHow to use our weather pages